EW5058 Weather Reports


time (UTC)temp
C
wind
direction
speed
KPH
gust
KPH
rain 1hr
cm
rain 24hr
cm
rain mn
cm
humidity
%
barometer
mb
20260504150819 21 0.0 1.6 0.00 0.00 0.00 48 1014.6
20260504140818 18 248 3.2 6.4 0.00 0.00 0.00 55 1014.8
20260504130819 16 180 6.4 9.7 0.00 0.00 0.00 64 1015.3
20260504081819 12 0.0 3.2 0.00 0.00 0.00 78 1015.7
20260504080839 12 203 4.8 11.3 0.00 0.00 0.00 80 1015.8
20260504045819 11 135 1.6 4.8 0.00 0.00 0.00 74 1016.3
20260504044819 10 0.0 0.0 0.00 0.00 0.00 74 1016.3
20260504043819 10 0.0 0.0 0.00 0.00 0.00 75 1016.3
20260504042819 10 0.0 0.0 0.00 0.00 0.00 75 1016.1
20260504041819 10 180 1.6 6.4 0.00 0.00 0.00 76 1016.1
20260504040819 9 0.0 1.6 0.00 0.00 0.00 76 1016.0
20260504035818 9 180 1.6 3.2 0.00 0.00 0.00 79 1015.9
20260504034818 9 0.0 1.6 0.00 0.00 0.00 79 1015.8
20260504033818 9 0.0 0.0 0.00 0.00 0.00 78 1015.7
20260504032818 9 0.0 0.0 0.00 0.00 0.00 80 1015.7
20260504031819 8 0.0 0.0 0.00 0.00 0.00 80 1015.6
20260504030818 8 0.0 0.0 0.00 0.00 0.00 81 1015.6
20260504025818 8 0.0 0.0 0.00 0.00 0.00 81 1015.6
20260504024821 9 0.0 0.0 0.00 0.00 0.00 81 1015.5
20260504023838 9 0.0 0.0 0.00 0.00 0.00 81 1015.5
20260504022820 9 0.0 0.0 0.00 0.00 0.00 80 1015.6
20260504021818 9 0.0 0.0 0.00 0.00 0.00 78 1015.5
20260504020820 10 180 1.6 3.2 0.00 0.00 0.00 77 1015.5
20260504015818 10 180 1.6 1.6 0.00 0.00 0.00 75 1015.5
20260504014818 10 180 1.6 3.2 0.00 0.00 0.00 73 1015.5
20260504013900 10 203 3.2 4.8 0.00 0.00 0.00 74 1015.4
20260504012818 10 0.0 0.0 0.00 0.00 0.00 70 1015.4
20260504011840 10 0.0 0.0 0.00 0.00 0.00 68 1015.2
20260504010820 10 0.0 0.0 0.00 0.00 0.00 65 1015.1
20260504005838 11 0.0 0.0 0.00 0.00 0.00 62 1015.1
20260504004838 11 0.0 0.0 0.00 0.00 0.00 61 1015.0
20260504003820 11 0.0 0.0 0.00 0.00 0.00 60 1014.9
20260504002840 11 0.0 1.6 0.00 0.00 0.00 58 1014.8
20260504001900 12 338 1.6 1.6 0.00 0.00 0.00 56 1014.9
20260504000820 12 338 1.6 3.2 0.00 0.00 0.00 52 1014.7
20260503235818 13 0.0 0.0 0.00 0.00 0.00 51 1014.5
20260503234818 13 0.0 0.0 0.00 0.00 0.00 48 1014.3
20260503233818 14 0.0 0.0 0.00 0.00 0.00 45 1014.3
20260503232820 15 0.0 0.0 0.00 0.00 0.00 44 1014.3
20260503231819 15 0.0 0.0 0.00 0.00 0.00 44 1014.3
20260503230818 15 0.0 1.6 0.00 0.00 0.00 41 1014.4
20260503225818 15 0.0 3.2 0.00 0.00 0.00 41 1014.4
20260503224820 16 315 1.6 1.6 0.00 0.00 0.00 39 1014.3
20260503223820 16 315 3.2 4.8 0.00 0.00 0.00 40 1014.3
20260503222820 16 315 1.6 3.2 0.00 0.00 0.00 41 1014.3
20260503221819 16 293 1.6 4.8 0.00 0.00 0.00 40 1014.4
20260503220820 16 248 1.6 3.2 0.00 0.00 0.00 42 1014.4
20260503215819 16 248 3.2 4.8 0.00 0.00 0.00 40 1014.5
20260503214820 16 293 3.2 4.8 0.00 0.00 0.00 40 1014.4
20260503213940 16 293 1.6 3.2 0.00 0.00 0.00 40 1014.5
20260503212820 16 293 3.2 4.8 0.00 0.00 0.00 39 1014.5
20260503211820 16 315 1.6 3.2 0.00 0.00 0.00 41 1014.5
20260503210820 16 315 3.2 6.4 0.00 0.00 0.00 41 1014.4
20260503205840 16 315 4.8 6.4 0.00 0.00 0.00 42 1014.4
20260503204840 16 293 4.8 6.4 0.00 0.00 0.00 40 1014.5
20260503203819 16 338 3.2 6.4 0.00 0.00 0.00 39 1014.5
20260503202819 16 315 8.0 14.5 0.00 0.00 0.00 39 1014.6
20260503201819 16 315 3.2 6.4 0.00 0.00 0.00 38 1014.8
20260503200819 17 315 11.3 17.7 0.00 0.00 0.00 41 1014.9
20260503195819 17 315 3.2 11.3 0.00 0.00 0.00 37 1015.0
20260503194819 17 315 8.0 11.3 0.00 0.00 0.00 40 1015.3
20260503193839 18 315 17.7 25.7 0.00 0.00 0.00 41 1015.1
20260503192839 17 203 3.2 4.8 0.00 0.00 0.00 38 1015.3
20260503191819 18 293 6.4 12.9 0.00 0.00 0.00 38 1015.5
20260503190819 17 293 8.0 12.9 0.00 0.00 0.00 44 1015.5
20260503185839 18 293 6.4 12.9 0.00 0.00 0.00 44 1015.5
20260503184819 17 315 14.5 22.5 0.00 0.00 0.00 42 1015.6
20260503183819 17 293 6.4 9.7 0.00 0.00 0.00 42 1015.7
20260503182819 18 315 9.7 20.9 0.00 0.00 0.00 43 1015.9
20260503181819 17 315 9.7 16.1 0.00 0.00 0.00 44 1015.8
20260503180819 17 315 6.4 11.3 0.00 0.00 0.00 42 1015.9
20260503175819 17 270 4.8 11.3 0.00 0.00 0.00 42 1015.8
20260503174819 17 315 16.1 22.5 0.00 0.00 0.00 41 1015.9
20260503173839 17 315 9.7 14.5 0.00 0.00 0.00 43 1016.1
20260503172839 17 315 14.5 20.9 0.00 0.00 0.00 42 1016.2
20260503171819 17 315 12.9 17.7 0.00 0.00 0.00 43 1016.2
20260503170819 17 315 9.7 19.3 0.00 0.00 0.00 41 1016.3